GW1938 Weather Reports


time (UTC)temp
F
wind
direction
speed
knots
gust
knots
rain 1hr
in
rain 24hr
in
rain mn
in
humidity
%
barometer
mb
20260509105605 64 189 5.2 6.1 0.00 0.00 0.00 64 1023.5
20260509104600 64 192 7.0 8.7 0.00 0.00 0.00 63 1023.4
20260509103554 64 189 6.1 8.7 0.00 0.00 0.00 62 1023.5
20260509103052 64 188 7.0 9.6 0.00 0.00 0.00 62 1023.4
20260509102551 64 185 6.1 8.7 0.00 0.00 0.00 63 1023.4
20260509102048 64 186 7.0 8.7 0.00 0.00 0.00 63 1023.3
20260509101547 64 184 7.0 9.6 0.00 0.00 0.00 64 1023.3
20260509101046 64 182 7.0 9.6 0.00 0.00 0.00 64 1023.2
20260509100544 64 184 7.8 10.4 0.00 0.00 0.00 64 1023.2
20260509100042 64 180 7.8 10.4 0.00 0.00 0.00 63 1023.2
20260509095541 64 181 7.8 10.4 0.00 0.00 0.00 62 1023.1
20260509095039 64 181 7.8 10.4 0.00 0.00 0.00 61 1023.2
20260509094537 64 181 7.8 9.6 0.00 0.00 0.00 61 1023.1
20260509094036 64 180 7.8 9.6 0.00 0.00 0.00 62 1023.1
20260509093533 64 179 7.8 11.3 0.00 0.00 0.00 62 1023.1
20260509093032 64 182 8.7 11.3 0.00 0.00 0.00 64 1023.1
20260509092530 64 179 7.8 10.4 0.00 0.00 0.00 64 1023.1
20260509092028 64 179 8.7 11.3 0.00 0.00 0.00 64 1023.0
20260509090521 64 182 7.8 10.4 0.00 0.00 0.00 65 1022.9
20260509090020 64 179 7.8 10.4 0.00 0.00 0.00 65 1022.9
20260509085519 64 181 7.8 10.4 0.00 0.00 0.00 66 1022.9
20260509084513 64 178 7.8 10.4 0.00 0.00 0.00 66 1022.8
20260509084010 64 177 7.8 10.4 0.00 0.00 0.00 65 1022.8
20260509082502 64 183 7.8 10.4 0.00 0.00 0.00 65 1022.6
20260509082001 64 178 7.0 10.4 0.00 0.00 0.00 65 1022.6
20260509081500 64 182 8.7 13.0 0.00 0.00 0.00 64 1022.5
20260509080959 64 181 8.7 12.2 0.00 0.00 0.00 63 1022.4
20260509080458 64 186 8.7 12.2 0.00 0.00 0.00 63 1022.3
20260509075956 64 186 7.8 11.3 0.00 0.00 0.00 65 1022.3
20260509075455 64 185 8.7 11.3 0.00 0.00 0.00 65 1022.2
20260509074953 64 183 8.7 13.0 0.00 0.00 0.00 65 1022.2
20260509074452 64 183 7.8 12.2 0.00 0.00 0.00 65 1022.1
20260509072943 65 184 8.7 13.9 0.00 0.00 0.00 63 1022.0
20260509072442 64 182 7.8 11.3 0.00 0.00 0.00 62 1021.9
20260509071940 65 187 7.8 12.2 0.00 0.00 0.00 62 1021.9
20260509070935 65 189 8.7 12.2 0.00 0.00 0.00 61 1021.8
20260509070433 65 188 8.7 13.0 0.00 0.00 0.00 61 1021.7
20260509065427 65 194 9.6 14.8 0.00 0.00 0.00 59 1021.6
20260509063919 66 193 8.7 13.0 0.00 0.00 0.00 59 1021.5
20260509063417 66 197 7.0 11.3 0.00 0.00 0.00 59 1021.5
20260509062917 66 184 7.0 11.3 0.00 0.00 0.00 59 1021.4
20260509062415 66 194 8.7 13.9 0.00 0.00 0.00 59 1021.5
20260509061913 67 197 8.7 13.9 0.00 0.00 0.00 59 1021.4
20260509061412 67 197 6.1 10.4 0.00 0.00 0.00 60 1021.4
20260509060910 67 195 7.8 14.8 0.00 0.00 0.00 60 1021.3
20260509060408 67 186 7.8 13.0 0.00 0.00 0.00 60 1021.3
20260509055906 67 197 9.6 14.8 0.00 0.00 0.00 60 1021.2
20260509055405 67 191 7.8 13.0 0.00 0.00 0.00 59 1021.2
20260509054903 67 188 8.7 13.9 0.00 0.00 0.00 59 1021.1
20260509054402 67 193 8.7 14.8 0.00 0.00 0.00 59 1021.1
20260509053900 67 181 8.7 13.0 0.00 0.00 0.00 58 1021.1
20260509053357 67 185 7.8 13.9 0.00 0.00 0.00 58 1021.0
20260509052352 68 196 6.1 10.4 0.00 0.00 0.00 58 1021.1
20260509051346 67 191 7.0 13.0 0.00 0.00 0.00 56 1021.0
20260509050845 67 205 9.6 13.9 0.00 0.00 0.00 60 1021.0
20260509045839 68 199 7.0 11.3 0.00 0.00 0.00 58 1021.0
20260509045338 67 205 9.6 14.8 0.00 0.00 0.00 60 1020.9
20260509043828 67 193 9.6 15.6 0.00 0.00 0.00 59 1020.9
20260509043326 68 192 9.6 13.9 0.00 0.00 0.00 56 1020.9
20260509042824 67 191 8.7 13.9 0.00 0.00 0.00 60 1020.9
20260509042322 67 193 9.6 14.8 0.00 0.00 0.00 60 1020.9
20260509041316 68 204 6.1 13.0 0.00 0.00 0.00 60 1020.9
20260509040224 68 199 8.7 13.0 0.00 0.00 0.00 58 1021.0
20260509035109 67 205 8.7 14.8 0.00 0.00 0.00 58 1021.0
20260509034104 67 204 10.4 14.8 0.00 0.00 0.00 57 1021.0
20260509033602 67 208 9.6 15.6 0.00 0.00 0.00 55 1021.0
20260509032054 67 203 9.6 17.4 0.00 0.00 0.00 55 1021.0
20260509031553 66 207 11.3 17.4 0.00 0.00 0.00 57 1021.2
20260509030548 67 200 11.3 18.2 0.00 0.00 0.00 55 1021.2
20260509025544 68 196 8.7 13.0 0.00 0.00 0.00 51 1021.3
20260509024539 68 211 9.6 14.8 0.00 0.00 0.00 49 1021.4
20260509024038 69 188 5.2 10.4 0.00 0.00 0.00 46 1021.4
20260509023537 69 219 5.2 11.3 0.00 0.00 0.00 47 1021.5
20260509023035 68 213 6.1 13.0 0.00 0.00 0.00 49 1021.5
20260509022534 67 222 7.8 15.6 0.00 0.00 0.00 48 1021.5
20260509022033 67 219 7.0 13.0 0.00 0.00 0.00 48 1021.6
20260509021026 67 219 7.0 13.0 0.00 0.00 0.00 47 1021.6
20260509020525 67 222 7.0 13.9 0.00 0.00 0.00 52 1021.6
20260509020022 67 219 7.8 13.0 0.00 0.00 0.00 49 1021.7
20260509015521 67 231 7.8 14.8 0.00 0.00 0.00 47 1021.8
20260509014013 67 230 5.2 10.4 0.00 0.00 0.00 51 1022.0
20260509013512 67 250 5.2 7.8 0.00 0.00 0.00 53 1022.0
20260509012506 66 242 6.1 11.3 0.00 0.00 0.00 53 1022.2
20260509012004 66 249 6.1 10.4 0.00 0.00 0.00 53 1022.2
20260509011502 66 243 4.3 9.6 0.00 0.00 0.00 55 1022.3
20260509010959 65 249 6.1 12.2 0.00 0.00 0.00 56 1022.3
20260509010457 66 248 7.0 10.4 0.00 0.00 0.00 53 1022.4
20260509005956 65 250 7.0 12.2 0.00 0.00 0.00 54 1022.4
20260509005453 64 253 7.0 11.3 0.00 0.00 0.00 59 1022.5
20260509004952 64 249 7.8 13.9 0.00 0.00 0.00 56 1022.6
20260509004449 63 254 7.0 12.2 0.00 0.00 0.00 59 1022.6
20260509003948 62 274 6.1 10.4 0.00 0.00 0.00 62 1022.7
20260509003444 62 288 4.3 9.6 0.00 0.00 0.00 63 1022.7
20260509002943 62 274 6.1 12.2 0.00 0.00 0.00 62 1022.7
20260509002441 62 266 7.8 13.0 0.00 0.00 0.00 63 1022.7
20260509001437 62 249 7.8 13.0 0.00 0.00 0.00 59 1022.7
20260509000935 62 258 8.7 14.8 0.00 0.00 0.00 59 1022.6
20260509000434 61 257 9.6 14.8 0.00 0.00 0.00 61 1022.7
20260508235933 61 259 8.7 14.8 0.00 0.00 0.00 62 1022.7
20260508235432 61 258 7.8 14.8 0.00 0.00 0.00 63 1022.7
20260508234931 61 262 8.7 14.8 0.00 0.00 0.00 65 1022.7
20260508233925 60 262 7.8 13.9 0.00 0.00 0.00 66 1022.7
20260508233424 60 272 7.0 13.0 0.00 0.00 0.00 67 1022.7
20260508232922 59 270 7.8 13.0 0.00 0.00 0.00 69 1022.6
20260508232420 59 264 9.6 15.6 0.00 0.00 0.00 67 1022.6
20260508231416 59 261 8.7 15.6 0.00 0.00 0.00 67 1022.7
20260508230913 58 256 9.6 15.6 0.00 0.00 0.00 67 1022.6
20260508230412 58 262 9.6 15.6 0.00 0.00 0.00 67 1022.6
20260508225911 58 262 10.4 17.4 0.00 0.00 0.00 67 1022.5
20260508225409 57 261 11.3 17.4 0.00 0.00 0.00 68 1022.6
20260508224907 57 263 9.6 15.6 0.00 0.00 0.00 70 1022.5
20260508223903 56 263 10.4 16.5 0.00 0.00 0.00 69 1022.5
20260508223401 56 262 9.6 15.6 0.00 0.00 0.00 69 1022.5
20260508221851 56 275 7.8 13.9 0.00 0.00 0.00 74 1022.3
20260508221348 56 275 7.8 13.9 0.00 0.00 0.00 73 1022.2
20260508220343 56 267 7.8 13.9 0.00 0.00 0.00 73 1022.2
20260508215842 56 268 8.7 14.8 0.00 0.00 0.00 73 1022.2
20260508215339 56 265 8.7 16.5 0.00 0.00 0.00 73 1022.2
20260508214837 55 261 9.6 16.5 0.00 0.00 0.00 73 1022.1
20260508214336 55 257 11.3 17.4 0.00 0.00 0.00 71 1022.0
20260508213835 55 258 10.4 17.4 0.00 0.00 0.00 72 1021.9
20260508213332 55 262 10.4 15.6 0.00 0.00 0.00 73 1021.8
20260508212327 55 259 9.6 14.8 0.00 0.00 0.00 75 1021.6
20260508211824 55 254 8.7 15.6 0.00 0.00 0.00 77 1021.5
20260508211323 55 251 8.7 17.4 0.00 0.00 0.00 78 1021.3
20260508210318 55 250 10.4 16.5 0.00 0.00 0.00 78 1021.1
20260508205817 55 250 11.3 17.4 0.00 0.00 0.00 77 1021.2
20260508205315 54 252 10.4 16.5 0.00 0.00 0.00 78 1021.1
20260508204811 54 250 10.4 14.8 0.00 0.00 0.00 78 1021.1
20260508204310 54 247 8.7 13.0 0.00 0.00 0.00 78 1021.0
20260508203809 54 247 8.7 13.9 0.00 0.00 0.00 78 1020.9
20260508202804 54 244 8.7 13.9 0.00 0.00 0.00 79 1020.8
20260508202306 54 247 9.6 14.8 0.00 0.00 0.00 79 1020.7
20260508201802 54 245 8.7 13.0 0.00 0.00 0.00 78 1020.7
20260508201259 54 242 7.8 13.9 0.00 0.00 0.00 78 1020.7
20260508200758 54 242 8.7 13.9 0.00 0.00 0.00 77 1020.6
20260508200257 54 240 7.8 14.8 0.00 0.00 0.00 76 1020.6
20260508195756 54 240 9.6 14.8 0.00 0.00 0.00 76 1020.6
20260508195254 54 245 9.6 15.6 0.00 0.00 0.00 75 1020.5
20260508194250 55 242 8.7 14.8 0.00 0.00 0.00 75 1020.3
20260508193746 55 238 7.8 13.0 0.00 0.00 0.00 74 1020.3
20260508193243 55 237 10.4 15.6 0.00 0.00 0.00 72 1020.1
20260508192238 55 240 12.2 19.1 0.00 0.00 0.00 71 1020.0
20260508191233 55 234 11.3 17.4 0.00 0.00 0.00 68 1020.0
20260508190229 55 235 9.6 16.5 0.00 0.00 0.00 68 1019.8
20260508185726 55 237 9.6 15.6 0.00 0.00 0.00 70 1019.8
20260508185224 55 236 9.6 14.8 0.00 0.00 0.00 71 1019.9
20260508184723 55 241 8.7 15.6 0.00 0.00 0.00 68 1019.8
20260508184222 56 241 9.6 16.5 0.00 0.00 0.00 71 1019.8
20260508182210 55 243 8.7 14.8 0.00 0.00 0.00 71 1019.8
20260508181205 56 243 8.7 13.9 0.00 0.00 0.00 73 1019.8
20260508180703 56 246 8.7 14.8 0.00 0.00 0.00 72 1019.8
20260508180202 56 246 8.7 13.9 0.00 0.00 0.00 71 1019.7
20260508175700 56 246 9.6 15.6 0.00 0.00 0.00 71 1019.7
20260508173648 57 249 10.4 19.1 0.00 0.00 0.00 70 1019.6
20260508173147 57 250 8.7 15.6 0.00 0.00 0.00 71 1019.6
20260508172645 57 251 9.6 16.5 0.00 0.00 0.00 72 1019.5
20260508172142 57 249 7.8 15.6 0.00 0.00 0.00 73 1019.6
20260508171138 57 254 8.7 17.4 0.00 0.00 0.00 72 1019.6
20260508170636 57 245 7.8 15.6 0.00 0.00 0.00 73 1019.6
20260508170135 57 249 8.7 16.5 0.00 0.00 0.00 71 1019.6
20260508165130 57 245 8.7 14.8 0.00 0.00 0.00 71 1019.6
20260508163621 57 250 9.6 15.6 0.00 0.00 0.00 69 1019.5
20260508163120 57 251 9.6 14.8 0.00 0.00 0.00 70 1019.6
20260508162618 57 251 9.6 13.9 0.00 0.00 0.00 70 1019.5
20260508162117 57 247 8.7 16.5 0.00 0.00 0.00 69 1019.6
20260508161615 57 243 8.7 14.8 0.00 0.00 0.00 71 1019.6
20260508161112 57 248 8.7 12.2 0.00 0.00 0.00 70 1019.5
20260508160610 57 244 7.8 15.6 0.00 0.00 0.00 71 1019.5
20260508155605 57 242 7.0 12.2 0.00 0.00 0.00 71 1019.5
20260508155103 57 248 7.8 15.6 0.00 0.00 0.00 71 1019.5
20260508154601 57 249 7.8 14.8 0.00 0.00 0.00 71 1019.4
20260508153556 57 244 8.7 14.8 0.00 0.00 0.00 68 1019.5
20260508153055 57 244 7.8 13.9 0.00 0.00 0.00 68 1019.4
20260508152051 57 246 9.6 15.6 0.00 0.00 0.00 69 1019.4
20260508151549 57 246 8.7 14.8 0.00 0.00 0.00 68 1019.5
20260508151048 58 247 9.6 15.6 0.00 0.00 0.00 70 1019.6
20260508150545 58 246 9.6 16.5 0.00 0.00 0.00 68 1019.5
20260508150044 57 249 10.4 15.6 0.00 0.00 0.00 66 1019.6
20260508145542 57 251 8.7 14.8 0.00 0.00 0.00 67 1019.6
20260508145042 57 246 8.7 13.9 0.00 0.00 0.00 65 1019.6
20260508144539 58 244 9.6 17.4 0.00 0.00 0.00 66 1019.6
20260508144037 58 247 10.4 15.6 0.00 0.00 0.00 65 1019.5
20260508143030 58 248 11.3 19.1 0.00 0.00 0.00 64 1019.5
20260508142529 58 245 11.3 17.4 0.00 0.00 0.00 65 1019.5
20260508142027 58 246 10.4 16.5 0.00 0.00 0.00 64 1019.4
20260508141526 58 242 9.6 15.6 0.00 0.00 0.00 65 1019.4
20260508141025 58 246 10.4 16.5 0.00 0.00 0.00 64 1019.4
20260508135515 59 257 10.4 16.5 0.00 0.00 0.00 65 1019.3
20260508135013 58 256 8.7 18.2 0.00 0.00 0.00 64 1019.2
20260508134511 58 248 9.6 15.6 0.00 0.00 0.00 65 1019.4
20260508133507 58 248 9.6 15.6 0.00 0.00 0.00 64 1019.4
20260508133005 58 245 9.6 15.6 0.00 0.00 0.00 64 1019.3
20260508132504 58 246 8.7 13.9 0.00 0.00 0.00 65 1019.4
20260508132003 58 246 9.6 14.8 0.00 0.00 0.00 64 1019.4
20260508131502 58 246 9.6 16.5 0.00 0.00 0.00 63 1019.4
20260508131000 58 244 9.6 17.4 0.00 0.00 0.00 63 1019.3
20260508130458 58 247 7.8 14.8 0.00 0.00 0.00 65 1019.3
20260508125957 58 243 8.7 13.0 0.00 0.00 0.00 62 1019.3
20260508125455 58 245 10.4 14.8 0.00 0.00 0.00 62 1019.3
20260508124954 58 245 9.6 14.8 0.00 0.00 0.00 60 1019.3
20260508124452 58 243 9.6 16.5 0.00 0.00 0.00 60 1019.3
20260508123951 59 242 9.6 16.5 0.00 0.00 0.00 60 1019.3
20260508123450 59 245 8.7 17.4 0.00 0.00 0.00 61 1019.2
20260508122949 59 242 8.7 14.8 0.00 0.00 0.00 62 1019.2
20260508122446 59 247 9.6 15.6 0.00 0.00 0.00 60 1019.1
20260508121945 59 243 8.7 16.5 0.00 0.00 0.00 60 1019.2
20260508121443 59 241 8.7 14.8 0.00 0.00 0.00 60 1019.2
20260508120941 59 244 9.6 17.4 0.00 0.00 0.00 60 1019.3
20260508120440 59 242 8.7 13.9 0.00 0.00 0.00 59 1019.3
20260508115939 59 245 9.6 16.5 0.00 0.00 0.00 59 1019.2
20260508115438 60 247 12.2 18.2 0.00 0.00 0.00 58 1019.2
20260508114936 59 244 9.6 17.4 0.00 0.00 0.00 57 1019.1
20260508113931 60 246 9.6 15.6 0.00 0.00 0.00 59 1019.2
20260508113430 60 247 10.4 21.7 0.00 0.00 0.00 56 1019.2
20260508112926 60 241 9.6 14.8 0.00 0.00 0.00 56 1019.1
20260508112425 60 247 10.4 16.5 0.00 0.00 0.00 56 1019.0
20260508111924 60 248 9.6 18.2 0.00 0.00 0.00 57 1018.9
20260508111423 60 249 11.3 19.1 0.00 0.00 0.00 59 1018.9
20260508110922 60 254 11.3 17.4 0.00 0.00 0.00 57 1018.9
20260508110420 60 250 12.2 19.1 0.00 0.00 0.00 57 1018.8
20260508105919 60 248 9.6 14.8 0.00 0.00 0.00 56 1018.8